Weather History for KLYH - August, 2014

Change the Weather History Date:

Wednesday, August 13, 2014

  Actual Average Record
Temperature  
Mean Temperature 68 °F 75 °F  
Max Temperature 78 °F 86 °F 98 °F (1935)
Min Temperature 58 °F 64 °F 49 °F (1930)
Degree Days  
Heating Degree Days 0 0  
Month to date heating degree days 0 0  
Since 1 June heating degree days 1 15  
Since 1 July heating degree days 0 1  
Cooling Degree Days 3 10  
Month to date cooling degree days 72 130  
Year to date cooling degree days 731 744  
Since 1 June cooling degree days 617 662  
Growing Degree Days 20 (Base 50)    
Moisture  
Dew Point 61 °F    
Average Humidity 75    
Maximum Humidity 100    
Minimum Humidity 50    
Precipitation  
Precipitation T in 0.09 in 1.61 in (1984)
Month to date precipitation 3.45 1.40  
Year to date precipitation 32.66 26.07  
Snow  
Snow 0.00 in - - ()
Month to date snowfall 0.0  
Since 1 June snowfall 0.0  
Since 1 July snowfall 0.0  
Snow Depth 0.00 in    
Sea Level Pressure  
Sea Level Pressure 29.89 in    
Wind  
Wind Speed 4 mph (West)    
Max Wind Speed 12 mph    
Max Gust Speed 17 mph    
Visibility 9 miles    
Events Rain    
T = Trace of Precipitation, MM = Missing Value Source: NWS Daily Summary

Daily Weather History Graph

Daily Weather History Graph

Search for Another Location

Airport or City:

Trip Planner

Search our weather history database for the weather conditions in past years. The results will help you decide how hot, cold, wet, or windy it might be!

Date:

Astronomy

Aug. 13, 2014 Rise Set
Actual Time 6:31 AM EDT 8:11 PM EDT
Civil Twilight 6:03 AM EDT 8:39 PM EDT
Nautical Twilight 5:29 AM EDT 9:12 PM EDT
Astronomical Twilight 4:53 AM EDT 9:48 PM EDT
Moon 10:01 PM EDT (8/13) 9:52 AM EDT (8/13)
Length of Visible Light 14h 35m
Length of Day
13h 39m
Waning Gibbous, 88% of the Moon is Illuminated
Aug 13
Waning Gibbous
Aug 17
Last Quarter
Aug 25
New
Sep 2
First Quarter
Sep 8
Full

Hourly Weather History & Observations

Time (EDT) Temp. Dew Point Humidity Pressure Visibility Wind Dir Wind Speed Gust Speed Precip Events Conditions
12:06 AM 68.0 °F 66.2 °F 94% 29.87 in 2.0 mi North 3.5 mph - N/A Rain Rain
12:14 AM 68.0 °F 66.2 °F 94% 29.87 in 6.0 mi Calm Calm - 0.09 in Rain Light Rain
12:54 AM 68.0 °F 68.0 °F 100% 29.85 in 7.0 mi South 4.6 mph - 0.09 in   Overcast
1:54 AM 68.0 °F 66.9 °F 96% 29.84 in 10.0 mi SSW 4.6 mph - 0.00 in   Overcast
2:54 AM 66.9 °F 66.0 °F 97% 29.82 in 10.0 mi Calm Calm - N/A   Clear
3:54 AM 64.9 °F 64.9 °F 100% 29.82 in 10.0 mi WNW 3.5 mph - N/A   Clear
4:54 AM 66.0 °F 63.0 °F 90% 29.81 in 10.0 mi Variable 3.5 mph - N/A   Partly Cloudy
5:54 AM 64.9 °F 63.0 °F 93% 29.83 in 10.0 mi Calm Calm - N/A   Clear
6:54 AM 62.1 °F 62.1 °F 100% 29.85 in 4.0 mi Calm Calm - N/A   Partly Cloudy
10:54 AM 71.6 °F 57.2 °F 60% 29.94 in 10.0 mi NW 8.1 mph - N/A   Mostly Cloudy
11:54 AM 73.9 °F 55.9 °F 53% 29.92 in 10.0 mi West 6.9 mph - N/A   Mostly Cloudy
12:54 PM 75.0 °F 57.9 °F 55% 29.91 in 10.0 mi Variable 4.6 mph - N/A   Overcast
1:54 PM 75.0 °F 57.9 °F 55% 29.91 in 10.0 mi Variable 3.5 mph - N/A   Overcast
2:54 PM 75.0 °F 57.9 °F 55% 29.91 in 10.0 mi WSW 5.8 mph - N/A   Overcast
3:54 PM 75.0 °F 60.1 °F 60% 29.91 in 10.0 mi West 8.1 mph - N/A   Overcast
4:54 PM 77.0 °F 57.9 °F 52% 29.90 in 10.0 mi WNW 8.1 mph - N/A   Clear
5:54 PM 75.9 °F 59.0 °F 56% 29.90 in 10.0 mi WSW 5.8 mph - N/A   Partly Cloudy
6:54 PM 73.9 °F 59.0 °F 59% 29.91 in 10.0 mi Variable 5.8 mph - N/A   Scattered Clouds
7:54 PM 71.1 °F 59.0 °F 66% 29.93 in 10.0 mi West 4.6 mph - N/A   Scattered Clouds
8:54 PM 68.0 °F 57.9 °F 70% 29.96 in 10.0 mi Variable 3.5 mph - N/A   Clear
9:54 PM 66.9 °F 55.9 °F 68% 29.99 in 10.0 mi NW 3.5 mph - N/A   Clear